Hourly Data Report for February 14, 2004

SHERBROOKE A
QUEBEC

45°26'00.000" N
71°41'00.000" W
241.40 m
7028124
71610
YSC

Download Data

Hourly Data (February 2004)
Hourly Data Report for February 14, 2004
TIME
LST
Temp Definition
°C
Dew Point Definition
°C
Rel Hum Definition
%
Precip. Amount Definition
mm

Wind Dir Definition
10's deg

Wind Spd Definition
km/h
Visibility Definition
km
Stn Press Definition
kPa
Hmdx Definition


Wind Chill Definition


Weather Definition


00:00 -2.3 -8.9 60   24 19 9.7 97.53   -8 Snow
01:00 -2.5 -8.9 61   24 19 11.3 97.50   -8 Snow
02:00 -2.7 -9.0 62   24 13 15.0 97.46   -7 Snow
03:00 -2.5 -9.8 57   25 19 15.0 97.42   -8 Snow
04:00 -2.9 -9.2 62   23 17 8.0 97.41   -8 Snow
05:00 -3.0 -9.0 63   24 19 9.7 97.40   -9 Snow
06:00 -3.2 -8.5 67   23 17 4.8 97.41   -9 Snow
07:00 -2.9 -9.1 62   24 17 11.3 97.41   -8 Snow
08:00 -2.9 -8.5 65   23 20 1.6 97.45   -9 Snow
09:00 -2.6 -8.1 66   23 19 9.7 97.48   -8 Snow
10:00 -2.0 -8.6 61   24 20 12.9 97.51   -8 Snow
11:00 -2.0 -7.7 65   25 20 4.8 97.52   -8 Snow
12:00 -2.6 -7.3 70   25 22 1.2 97.49   -9 Snow
13:00 -3.0 -6.9 74   25 19 0.8 97.51   -9 Moderate Snow
14:00 -2.8 -8.6 64   27 24 4.8 97.53   -9 Snow,Blowing Snow
15:00 -6.7 -11.6 68   30 26 4.8 97.69   -15 Snow Showers,Blowing Snow
16:00 -8.1 -12.9 68   30 22 1.6 97.85   -16 Snow Showers,Blowing Snow
17:00 -10.2 -15.3 66   35 15 6.4 98.01   -17 Snow Showers
18:00 -12.7 -18.2 63   1 7 15.0 98.14   -17  
19:00 -15.1 -22.2 55   34 6 15.0 98.28   -19  
20:00 -16.4 -23.7 53   32 9 15.0 98.33   -22  
21:00 -17.4 -24.9 52   32 9 15.0 98.40   -24  
22:00 -19.9 -25.8 59   31 9 15.0 98.46   -27  
23:00 -20.2 -29.0 45   31 6 15.0 98.48   -25  

Notes on Data Quality.

Legend

  • E = Estimated
  • M = Missing
  • NA = Not Available*
  • [empty] = Indicates an unobserved value
Date modified: